Location: Killam
(52.7910°N, 111.8608°W)
Time: 18:34:57
(UTC+00:00)

A-11 Canister half - Visible Passes

Search period start: 18 February 2026 00:00
Search period end: 28 February 2026 00:00
Orbit: 1512 x 1687 km, 47.2° (Epoch: 18 February)

Date Brightness Start Highest point End Pass type
(mag) Time Alt. Az. Time Alt. Az. Time Alt. Az.
18 Feb 10.2 02:45:18 10° S 02:51:47 20° SE 02:51:47 20° SE visible
18 Feb 10.2 04:45:31 10° SW 04:50:02 28° SSW 04:50:02 28° SSW visible
18 Feb 10.6 11:12:40 15° S 11:12:40 15° S 11:14:19 10° S visible
19 Feb 10.2 02:22:42 10° SSE 02:28:55 18° SE 02:30:41 18° ESE visible
19 Feb 9.8 04:22:34 10° SW 04:28:55 36° S 04:28:55 36° S visible
19 Feb 10.9 06:26:07 10° WSW 06:27:10 14° WSW 06:27:10 14° WSW visible
20 Feb 10.3 02:00:09 10° SSE 02:05:59 17° SE 02:09:31 14° ESE visible
20 Feb 9.5 03:59:38 10° SW 04:07:45 41° SSE 04:07:45 41° SSE visible
20 Feb 10.5 06:03:03 10° WSW 06:05:59 22° WSW 06:05:59 22° WSW visible
21 Feb 10.4 01:37:39 10° SSE 01:43:04 16° SE 01:48:16 10° E visible
21 Feb 9.4 03:36:43 10° SSW 03:45:55 41° SSE 03:46:30 41° SE visible
21 Feb 10.1 05:40:01 10° WSW 05:44:44 32° WSW 05:44:44 32° WSW visible
22 Feb 10.5 01:15:14 10° SSE 01:20:09 15° SE 01:25:03 10° E visible
22 Feb 9.5 03:13:48 10° SSW 03:22:55 40° SSE 03:25:10 36° ESE visible
22 Feb 9.7 05:16:57 10° WSW 05:23:24 43° SW 05:23:24 43° SW visible
22 Feb 11.1 07:21:29 10° W 07:21:37 10° W 07:21:37 10° W visible
23 Feb 9.6 02:50:54 10° SSW 02:59:56 38° SE 03:03:46 29° ESE visible
23 Feb 9.3 04:53:55 10° WSW 05:01:59 54° SSW 05:01:59 54° SSW visible
23 Feb 10.8 06:58:24 10° W 07:00:12 17° W 07:00:12 17° W visible
24 Feb 9.7 02:28:00 10° SSW 02:36:56 37° SE 02:42:18 22° E visible
24 Feb 9.1 04:30:53 10° WSW 04:40:31 60° S 04:40:31 60° S visible
24 Feb 10.5 06:35:20 10° W 06:38:43 24° W 06:38:43 24° W visible
25 Feb 9.8 02:05:08 10° SSW 02:13:57 35° SE 02:20:46 16° E visible
25 Feb 9.1 04:07:51 10° WSW 04:17:46 60° SSE 04:18:58 57° SE visible
25 Feb 10.1 06:12:15 10° W 06:17:10 33° WSW 06:17:10 33° WSW visible
26 Feb 9.9 01:42:17 10° SSW 01:50:58 34° SE 01:59:11 11° E visible
26 Feb 9.2 03:44:50 10° WSW 03:54:44 59° SSE 03:57:23 47° ESE visible
26 Feb 9.7 05:49:11 10° W 05:55:34 43° WSW 05:55:34 43° WSW visible
27 Feb 10.0 01:19:27 10° SSW 01:27:59 32° SE 01:36:29 10° E visible
27 Feb 9.2 03:21:50 10° WSW 03:31:41 58° SSE 03:35:44 37° ESE visible
27 Feb 9.4 05:26:07 10° W 05:33:56 53° SW 05:33:56 53° SW visible
27 Feb 10.9 07:30:55 10° W 07:32:08 14° W 07:32:08 14° W visible
